| time (UTC) | temp C | wind direction | speed KPH | gust KPH | rain 1hr cm | rain 24hr cm | rain mn cm | humidity % | barometer mb |
| 20260901083058 | 20 | 113 | 0.0 | 4.8 | 0.00 | 0.00 | 0.00 | 86 | 1015.0 |
| 20260901081605 | 20 | 0 | 0.0 | 0.0 | 0.00 | 0.00 | 0.00 | 86 | 1014.9 |
| 20260901080114 | 20 | 0 | 0.0 | 0.0 | 0.00 | 0.00 | 0.00 | 85 | 1014.9 |
| 20260901074559 | 20 | 0 | 0.0 | 0.0 | 0.00 | 0.00 | 0.00 | 85 | 1014.9 |
| 20260901073059 | 20 | 0 | 0.0 | 1.6 | 0.00 | 0.00 | 0.00 | 85 | 1015.0 |
| 20260901071605 | 20 | 155 | 0.0 | 3.2 | 0.00 | 0.00 | 0.00 | 85 | 1015.0 |
| 20260901070105 | 20 | 155 | 1.6 | 4.8 | 0.00 | 0.00 | 0.00 | 85 | 1015.0 |
| 20260901064620 | 20 | 155 | 1.6 | 4.8 | 0.00 | 0.00 | 0.00 | 85 | 1015.0 |
| 20260901063119 | 20 | 156 | 3.2 | 4.8 | 0.00 | 0.00 | 0.00 | 85 | 1014.8 |
| 20260901061604 | 20 | 157 | 1.6 | 4.8 | 0.00 | 0.00 | 0.00 | 85 | 1014.8 |
| 20260901060104 | 20 | 157 | 1.6 | 4.8 | 0.00 | 0.00 | 0.00 | 85 | 1014.8 |
| 20260901054555 | 20 | 0 | 0.0 | 0.0 | 0.00 | 0.00 | 0.00 | 86 | 1014.8 |
| 20260901053102 | 20 | 0 | 0.0 | 0.0 | 0.00 | 0.00 | 0.00 | 86 | 1014.7 |
| 20260901051600 | 20 | 0 | 0.0 | 0.0 | 0.00 | 0.00 | 0.00 | 85 | 1014.6 |
| 20260901050058 | 20 | 0 | 0.0 | 3.2 | 0.00 | 0.00 | 0.00 | 85 | 1014.6 |
| 20260901044558 | 20 | 0 | 0.0 | 3.2 | 0.00 | 0.00 | 0.00 | 85 | 1014.6 |
| 20260901043103 | 20 | 157 | 0.0 | 8.0 | 0.00 | 0.00 | 0.00 | 85 | 1014.5 |
| 20260901041557 | 20 | 158 | 1.6 | 8.0 | 0.00 | 0.00 | 0.00 | 85 | 1014.4 |
| 20260901040104 | 20 | 161 | 3.2 | 6.4 | 0.00 | 0.00 | 0.00 | 84 | 1014.4 |
| 20260901034559 | 20 | 190 | 3.2 | 6.4 | 0.00 | 0.00 | 0.00 | 84 | 1014.3 |
| 20260901033056 | 20 | 232 | 1.6 | 4.8 | 0.00 | 0.00 | 0.00 | 84 | 1014.1 |
| 20260901031602 | 20 | 0 | 0.0 | 0.0 | 0.00 | 0.00 | 0.00 | 83 | 1013.7 |
| 20260901030101 | 20 | 0 | 0.0 | 4.8 | 0.00 | 0.00 | 0.00 | 82 | 1013.7 |
| 20260901024602 | 21 | 238 | 0.0 | 6.4 | 0.00 | 0.00 | 0.00 | 81 | 1013.4 |
| 20260901023103 | 21 | 243 | 0.0 | 11.3 | 0.00 | 0.00 | 0.00 | 80 | 1013.3 |
| 20260901021602 | 21 | 250 | 1.6 | 9.7 | 0.00 | 0.00 | 0.00 | 79 | 1013.2 |
| 20260901020059 | 22 | 253 | 3.2 | 9.7 | 0.00 | 0.00 | 0.00 | 79 | 1013.0 |
| 20260901014555 | 22 | 268 | 4.8 | 12.9 | 0.00 | 0.00 | 0.00 | 78 | 1012.8 |
| 20260901013109 | 22 | 360 | 3.2 | 14.5 | 0.00 | 0.00 | 0.00 | 77 | 1013.0 |
| 20260901011556 | 23 | 255 | 4.8 | 14.5 | 0.00 | 0.00 | 0.00 | 75 | 1013.0 |
| 20260901010106 | 23 | 258 | 4.8 | 14.5 | 0.00 | 0.00 | 0.00 | 71 | 1013.1 |
| 20260901004611 | 23 | 360 | 9.7 | 17.7 | 0.00 | 0.00 | 0.00 | 72 | 1013.3 |
| 20260901003108 | 24 | 240 | 6.4 | 16.1 | 0.00 | 0.00 | 0.00 | 72 | 1013.4 |
| 20260901001609 | 23 | 252 | 9.7 | 19.3 | 0.00 | 0.00 | 0.00 | 73 | 1013.4 |
| 20260901000057 | 24 | 283 | 8.0 | 17.7 | 0.00 | 0.00 | 0.00 | 74 | 1013.4 |
| 20260831234602 | 24 | 245 | 8.0 | 19.3 | 0.00 | 0.00 | 0.00 | 73 | 1013.6 |
| 20260831233058 | 25 | 219 | 6.4 | 19.3 | 0.00 | 0.00 | 0.00 | 72 | 1013.5 |
| 20260831231615 | 24 | 252 | 9.7 | 19.3 | 0.00 | 0.00 | 0.00 | 73 | 1013.4 |
| 20260831230113 | 25 | 292 | 9.7 | 20.9 | 0.00 | 0.00 | 0.00 | 73 | 1013.6 |
| 20260831224605 | 24 | 360 | 11.3 | 20.9 | 0.00 | 0.00 | 0.00 | 73 | 1013.7 |
| 20260831223110 | 25 | 258 | 9.7 | 19.3 | 0.00 | 0.00 | 0.00 | 72 | 1013.8 |
| 20260831221605 | 25 | 242 | 11.3 | 22.5 | 0.00 | 0.00 | 0.00 | 72 | 1014.1 |
| 20260831220100 | 25 | 281 | 9.7 | 22.5 | 0.00 | 0.00 | 0.00 | 71 | 1014.2 |
| 20260831214603 | 25 | 291 | 9.7 | 24.1 | 0.00 | 0.00 | 0.00 | 72 | 1014.0 |
| 20260831213101 | 25 | 360 | 11.3 | 20.9 | 0.00 | 0.00 | 0.00 | 71 | 1014.0 |
| 20260831211616 | 25 | 227 | 9.7 | 22.5 | 0.00 | 0.00 | 0.00 | 70 | 1014.2 |
| 20260831210110 | 25 | 360 | 11.3 | 19.3 | 0.00 | 0.00 | 0.00 | 70 | 1014.2 |
| 20260831204606 | 25 | 228 | 8.0 | 17.7 | 0.00 | 0.00 | 0.00 | 71 | 1014.5 |
| 20260831203102 | 25 | 291 | 9.7 | 17.7 | 0.00 | 0.00 | 0.00 | 70 | 1014.4 |
| 20260831201611 | 25 | 207 | 6.4 | 16.1 | 0.00 | 0.00 | 0.00 | 70 | 1014.5 |
| 20260831200107 | 25 | 204 | 6.4 | 17.7 | 0.00 | 0.00 | 0.00 | 70 | 1014.5 |
| 20260831194642 | 25 | 237 | 9.7 | 17.7 | 0.00 | 0.00 | 0.00 | 70 | 1014.5 |
| 20260831193100 | 25 | 242 | 8.0 | 17.7 | 0.00 | 0.00 | 0.00 | 71 | 1014.6 |
| 20260831191608 | 26 | 186 | 6.4 | 17.7 | 0.00 | 0.00 | 0.00 | 69 | 1014.7 |
| 20260831190108 | 26 | 198 | 6.4 | 17.7 | 0.00 | 0.00 | 0.00 | 69 | 1014.8 |
| 20260831184601 | 25 | 185 | 4.8 | 17.7 | 0.00 | 0.00 | 0.00 | 70 | 1014.9 |
| 20260831183104 | 26 | 241 | 8.0 | 19.3 | 0.00 | 0.00 | 0.00 | 70 | 1014.8 |
| 20260831181555 | 25 | 360 | 8.0 | 16.1 | 0.00 | 0.00 | 0.00 | 71 | 1015.0 |
| 20260831180107 | 25 | 277 | 6.4 | 16.1 | 0.00 | 0.00 | 0.00 | 71 | 1014.8 |
| 20260831174601 | 25 | 225 | 6.4 | 14.5 | 0.00 | 0.00 | 0.00 | 71 | 1014.6 |
| 20260831173057 | 25 | 360 | 8.0 | 16.1 | 0.00 | 0.00 | 0.00 | 71 | 1014.5 |
| 20260831171600 | 26 | 180 | 6.4 | 16.1 | 0.00 | 0.00 | 0.00 | 67 | 1014.4 |
| 20260831170105 | 25 | 360 | 4.8 | 14.5 | 0.00 | 0.00 | 0.00 | 69 | 1014.5 |
| 20260831164601 | 26 | 178 | 1.6 | 9.7 | 0.00 | 0.00 | 0.00 | 68 | 1014.5 |
| 20260831163058 | 26 | 188 | 1.6 | 12.9 | 0.00 | 0.00 | 0.00 | 67 | 1014.4 |
| 20260831161553 | 26 | 121 | 6.4 | 12.9 | 0.00 | 0.00 | 0.00 | 65 | 1014.4 |
| 20260831160059 | 26 | 153 | 3.2 | 11.3 | 0.00 | 0.00 | 0.00 | 66 | 1014.4 |
| 20260831154617 | 24 | 108 | 3.2 | 9.7 | 0.00 | 0.00 | 0.00 | 73 | 1014.4 |
| 20260831153114 | 23 | 150 | 0.0 | 3.2 | 0.00 | 0.00 | 0.00 | 75 | 1014.3 |
| 20260831151605 | 22 | 150 | 0.0 | 3.2 | 0.00 | 0.00 | 0.00 | 76 | 1014.3 |
| 20260831150059 | 22 | 0 | 0.0 | 3.2 | 0.00 | 0.00 | 0.00 | 78 | 1014.2 |
| 20260831144630 | 21 | 0 | 0.0 | 1.6 | 0.00 | 0.00 | 0.00 | 79 | 1014.1 |
| 20260831143104 | 21 | 0 | 0.0 | 3.2 | 0.00 | 0.00 | 0.00 | 80 | 1014.1 |
| 20260831141557 | 21 | 150 | 0.0 | 3.2 | 0.00 | 0.00 | 0.00 | 81 | 1013.8 |
| 20260831140055 | 21 | 0 | 0.0 | 0.0 | 0.00 | 0.00 | 0.00 | 81 | 1013.7 |
| 20260831134600 | 21 | 0 | 0.0 | 1.6 | 0.00 | 0.00 | 0.00 | 81 | 1013.4 |
| 20260831133102 | 21 | 0 | 0.0 | 1.6 | 0.00 | 0.00 | 0.00 | 81 | 1013.2 |
| 20260831131603 | 21 | 0 | 0.0 | 1.6 | 0.00 | 0.00 | 0.00 | 81 | 1013.1 |
| 20260831130109 | 21 | 150 | 1.6 | 3.2 | 0.00 | 0.00 | 0.00 | 81 | 1013.2 |
| 20260831124603 | 21 | 150 | 1.6 | 4.8 | 0.00 | 0.00 | 0.00 | 81 | 1013.0 |
| 20260831123058 | 21 | 149 | 1.6 | 9.7 | 0.00 | 0.00 | 0.00 | 81 | 1013.1 |
| 20260831121603 | 21 | 148 | 3.2 | 8.0 | 0.00 | 0.00 | 0.00 | 82 | 1013.0 |
| 20260831120100 | 21 | 0 | 1.6 | 4.8 | 0.00 | 0.00 | 0.00 | 82 | 1013.1 |
| 20260831114600 | 21 | 150 | 0.0 | 3.2 | 0.00 | 0.00 | 0.00 | 82 | 1013.0 |
| 20260831113110 | 21 | 150 | 0.0 | 9.7 | 0.00 | 0.00 | 0.00 | 83 | 1013.0 |
| 20260831111604 | 20 | 84 | 3.2 | 8.0 | 0.00 | 0.00 | 0.00 | 85 | 1013.1 |
| 20260831110059 | 20 | 92 | 1.6 | 6.4 | 0.00 | 0.00 | 0.00 | 85 | 1013.1 |
| 20260831104603 | 20 | 92 | 1.6 | 6.4 | 0.00 | 0.00 | 0.00 | 86 | 1013.2 |
| 20260831103058 | 20 | 92 | 0.0 | 6.4 | 0.00 | 0.00 | 0.00 | 85 | 1013.1 |
| 20260831101555 | 20 | 131 | 3.2 | 8.0 | 0.00 | 0.00 | 0.00 | 85 | 1013.2 |
| 20260831100122 | 21 | 213 | 1.6 | 8.0 | 0.00 | 0.00 | 0.00 | 86 | 1013.2 |
| 20260831094556 | 20 | 161 | 4.8 | 8.0 | 0.00 | 0.00 | 0.00 | 86 | 1013.1 |
| 20260831093101 | 20 | 164 | 1.6 | 6.4 | 0.00 | 0.00 | 0.00 | 86 | 1013.1 |
| 20260831091603 | 20 | 165 | 1.6 | 3.2 | 0.00 | 0.00 | 0.00 | 87 | 1013.1 |
| 20260831090056 | 20 | 165 | 1.6 | 3.2 | 0.00 | 0.00 | 0.00 | 87 | 1013.1 |
| 20260831084634 | 20 | 165 | 1.6 | 8.0 | 0.00 | 0.00 | 0.00 | 87 | 1013.3 |